This is the latest recevied weather packets stored in our database for station/object F8BMG-Wx. If no packets are shown the sender has not sent any weather packets the latest 10 day(s).
| Time | Temp. | Humidity | Pressure | Rain* | Wind** | Luminosity | Snow |
|---|---|---|---|---|---|---|---|
| 1777395167 | 17.78° C | 99% | 1011.8 hPa | 0 mm | - | - | - |
| 1777394863 | 17.78° C | 99% | 1011.8 hPa | 0 mm | - | - | - |
| 1777394565 | 17.78° C | 99% | 1011.8 hPa | 0 mm | - | - | - |
| 1777394253 | 17.78° C | 99% | 1011.9 hPa | 0 mm | - | - | - |
| 1777393949 | 17.78° C | 99% | 1012.2 hPa | 0.76 mm | - | - | - |
| 1777393645 | 17.78° C | 99% | 1012.4 hPa | 0.76 mm | - | - | - |
| 1777393342 | 18.33° C | 99% | 1012.4 hPa | 0.76 mm | - | - | - |
| 1777393038 | 18.33° C | 99% | 1012.5 hPa | 0.51 mm | - | - | - |
| 1777392741 | 18.33° C | 99% | 1012.5 hPa | 0.51 mm | - | - | - |
| 1777392429 | 18.89° C | 99% | 1012.5 hPa | 0.25 mm | - | - | - |
| 1777392125 | 18.89° C | 99% | 1012.5 hPa | 0 mm | - | - | - |
| 1777391822 | 18.89° C | 99% | 1012.4 hPa | 0 mm | - | - | - |
| 1777391518 | 19.44° C | 99% | 1012.3 hPa | 0 mm | - | - | - |
| 1777391215 | 19.44° C | 99% | 1012.1 hPa | 0 mm | - | - | - |
| 1777390917 | 19.44° C | 99% | 1012.1 hPa | 0 mm | - | - | - |
| 1777390604 | 19.44° C | 99% | 1012 hPa | 0 mm | - | - | - |
| 1777390301 | 19.44° C | 99% | 1012.1 hPa | 0 mm | - | - | - |
| 1777389997 | 19.44° C | 99% | 1012.1 hPa | 0 mm | - | - | - |
| 1777389693 | 20° C | 99% | 1012 hPa | 0 mm | - | - | - |
| 1777389390 | 20° C | 99% | 1012 hPa | 0 mm | - | - | - |
| 1777389092 | 20.56° C | 99% | 1012 hPa | 0 mm | - | - | - |
| 1777388781 | 20° C | 99% | 1012.1 hPa | 0 mm | - | - | - |
| 1777388477 | 20° C | 99% | 1012.1 hPa | 0 mm | - | - | - |
| 1777388174 | 20° C | 99% | 1012.3 hPa | 0 mm | - | - | - |
| 1777387870 | 19.44° C | 99% | 1012.3 hPa | 0 mm | - | - | - |
* Rain latest hour (hover to see other rain measurements)
** Current wind speed in m/s (hover to see current wind gust speed)